Tracking 19176 objects as of 26-May-2018
HD Live streaming from Space Station
objects crossing your sky now

OPTUS A1 (AUSSAT 1)

Track OPTUS A1 (AUSSAT 1) now!
OPTUS A1 (AUSSAT 1) is classified as:


NORAD ID: 15993
Int'l Code: 1985-076B
Perigee: 35,907.9 km
Apogee: 35,962.7 km
Inclination: 15.3 °
Period: 1,443.3 minutes
Semi major axis: 42306 km
RCS: 1 m2 (large)
Launch date: August 27, 1985
Source: Australia (AUS)
Launch site: AIR FORCE EASTERN TEST RANGE (AFETR)
aabbcc
Your satellite tracking list
Your tracking list is empty




NASA's NSSDC Master Catalog

Two Line Element Set (TLE):
1 15993U 85076B   18145.87758682 -.00000343  00000-0  00000+0 0  9993
2 15993  15.3051   3.7014 0006482 312.0901  27.9285  0.99768991 90218
Source of the keplerian elements: AFSPC